CW6238 Weather Reports


time (UTC)temp
C
wind
direction
speed
KPH
gust
KPH
rain 1hr
cm
rain 24hr
cm
rain mn
cm
humidity
%
barometer
mb
20260507103519 13 68 1.6 6.4 0.00 0.00 0.00 22 1010.5
20260507102519 13 45 3.2 9.7 0.00 0.00 0.00 23 1010.4
20260507101518 13 113 1.6 4.8 0.00 0.00 0.00 23 1010.4
20260507100539 13 135 3.2 6.4 0.00 0.00 0.00 24 1010.4
20260507095519 12 68 3.2 12.9 0.00 0.00 0.00 24 1010.4
20260507094519 13 0.0 4.8 0.00 0.00 0.00 25 1010.4
20260507093518 12 23 1.6 4.8 0.00 0.00 0.00 25 1010.4
20260507092518 12 68 3.2 11.3 0.00 0.00 0.00 24 1010.4
20260507091519 12 45 3.2 9.7 0.00 0.00 0.00 24 1010.4
20260507090519 12 45 3.2 8.0 0.00 0.00 0.00 23 1010.3
20260507085539 12 45 1.6 6.4 0.00 0.00 0.00 23 1010.3
20260507084519 11 45 1.6 4.8 0.00 0.00 0.00 25 1010.3
20260507083518 11 45 1.6 4.8 0.00 0.00 0.00 26 1010.3
20260507082539 11 45 1.6 4.8 0.00 0.00 0.00 24 1010.2
20260507081519 11 45 1.6 6.4 0.00 0.00 0.00 25 1010.3
20260507080519 11 270 1.6 9.7 0.00 0.00 0.00 28 1010.2
20260507075538 10 68 1.6 4.8 0.00 0.00 0.00 26 1010.2
20260507074539 10 68 1.6 8.0 0.00 0.00 0.00 26 1010.3
20260507073519 10 135 3.2 6.4 0.00 0.00 0.00 28 1010.2
20260507072539 10 45 3.2 8.0 0.00 0.00 0.00 30 1010.2
20260507071519 10 135 1.6 6.4 0.00 0.00 0.00 34 1010.2
20260507070539 9 68 3.2 8.0 0.00 0.00 0.00 33 1010.2
20260507065518 9 45 1.6 6.4 0.00 0.00 0.00 42 1010.2
20260507064519 8 68 3.2 9.7 0.00 0.00 0.00 42 1010.2
20260507063518 8 45 3.2 9.7 0.00 0.00 0.00 44 1010.1
20260507062518 8 113 3.2 8.0 0.00 0.00 0.00 50 1010.1
20260507061520 8 45 1.6 4.8 0.00 0.00 0.00 51 1010.0
20260507060539 7 135 3.2 6.4 0.00 0.00 0.00 55 1010.0
20260507055524 7 135 1.6 6.4 0.00 0.00 0.00 61 1010.0
20260507054518 6 113 1.6 4.8 0.00 0.00 0.00 64 1009.9
20260507053519 6 113 1.6 6.4 0.00 0.00 0.00 67 1009.8
20260507052518 6 0.0 4.8 0.00 0.00 0.00 69 1009.7
20260507051521 6 0.0 0.0 0.00 0.00 0.00 73 1009.7
20260507050543 5 0.0 0.0 0.00 0.00 0.00 77 1009.7
20260507045520 5 0.0 4.8 0.00 0.00 0.00 80 1009.7
20260507044518 4 0.0 0.0 0.00 0.00 0.00 85 1009.7
20260507043559 2 0.0 0.0 0.00 0.00 0.00 91 1009.7
20260507042518 1 0.0 0.0 0.00 0.00 0.00 93 1009.7
20260507041520 0 0.0 0.0 0.00 0.00 0.00 93 1009.6
20260507040519 -1 0.0 0.0 0.00 0.00 0.00 93 1009.7
20260507035518 -1 0.0 0.0 0.00 0.00 0.00 93 1009.6
20260507034640 -1 0.0 0.0 0.00 0.00 0.00 93 1009.5
20260507033520 -1 0.0 0.0 0.00 0.00 0.00 93 1009.5
20260507032518 -2 0.0 0.0 0.00 0.00 0.00 93 1009.4
20260507031518 -2 0.0 0.0 0.00 0.00 0.00 92 1009.5
20260507030520 -2 0.0 0.0 0.00 0.00 0.00 92 1009.5
20260507025518 -2 0.0 0.0 0.00 0.00 0.00 92 1009.4
20260507024520 -2 0.0 0.0 0.00 0.00 0.00 93 1009.4
20260507023520 -2 0.0 0.0 0.00 0.00 0.00 93 1009.4
20260507022520 -2 0.0 0.0 0.00 0.00 0.00 92 1009.4
20260507021520 -2 0.0 0.0 0.00 0.00 0.00 92 1009.4
20260507020520 -2 0.0 0.0 0.00 0.00 0.00 92 1009.3
20260507015518 -2 0.0 0.0 0.00 0.00 0.00 91 1009.4
20260507014520 -2 0.0 0.0 0.00 0.00 0.00 92 1009.4
20260507013520 -2 0.0 0.0 0.00 0.00 0.00 91 1009.4
20260507012521 -1 0.0 0.0 0.00 0.00 0.00 91 1009.3
20260507011520 -1 0.0 0.0 0.00 0.00 0.00 91 1009.3
20260507010524 -1 0.0 0.0 0.00 0.00 0.00 91 1009.3
20260507005522 -1 0.0 0.0 0.00 0.00 0.00 90 1009.3
20260507004540 -1 0.0 0.0 0.00 0.00 0.00 89 1009.2
20260507003520 -1 0.0 0.0 0.00 0.00 0.00 89 1009.3
20260507002520 -1 0.0 0.0 0.00 0.00 0.00 88 1009.2
20260507001522 -1 0.0 0.0 0.00 0.00 0.00 88 1009.1
20260507000520 0 0.0 0.0 0.00 0.00 0.00 87 1008.9
20260506235520 0 0.0 0.0 0.00 0.00 0.00 87 1008.9
20260506234520 0 0.0 0.0 0.00 0.00 0.00 85 1008.9
20260506233520 0 0.0 0.0 0.00 0.00 0.00 85 1008.9
20260506232520 0 0.0 0.0 0.00 0.00 0.00 85 1008.8
20260506231621 0 0.0 0.0 0.00 0.00 0.00 85 1008.7
20260506230520 0 0.0 0.0 0.00 0.00 0.00 83 1008.8
20260506225523 0 0.0 0.0 0.00 0.00 0.00 82 1008.8
20260506224520 0 0.0 0.0 0.00 0.00 0.00 81 1008.8
20260506223520 1 0.0 0.0 0.00 0.00 0.00 80 1008.9
20260506222520 1 0.0 0.0 0.00 0.00 0.00 79 1008.8
20260506221520 1 0.0 0.0 0.00 0.00 0.00 78 1008.7
20260506220520 1 0.0 0.0 0.00 0.00 0.00 78 1008.7
20260506215520 1 0.0 0.0 0.00 0.00 0.00 76 1008.7
20260506214520 2 0.0 0.0 0.00 0.00 0.00 75 1008.6
20260506213519 2 0.0 0.0 0.00 0.00 0.00 74 1008.7
20260506212539 2 0.0 0.0 0.00 0.00 0.00 73 1008.6
20260506211520 2 0.0 0.0 0.00 0.00 0.00 72 1008.6
20260506210519 2 0.0 1.6 0.00 0.00 0.00 71 1008.7
20260506205519 3 0.0 0.0 0.00 0.00 0.00 70 1008.6
20260506204541 3 0.0 1.6 0.00 0.00 0.00 69 1008.6
20260506203519 3 0.0 6.4 0.00 0.00 0.00 68 1008.6
20260506202540 3 0.0 1.6 0.00 0.00 0.00 67 1008.6
20260506201600 3 0.0 3.2 0.00 0.00 0.00 67 1008.6
20260506200520 3 0.0 0.0 0.00 0.00 0.00 66 1008.7
20260506195520 4 0.0 1.6 0.00 0.00 0.00 64 1008.7
20260506194524 4 0.0 3.2 0.00 0.00 0.00 63 1008.7
20260506193520 5 0.0 1.6 0.00 0.00 0.00 62 1008.7
20260506192519 5 0.0 3.2 0.00 0.00 0.00 60 1008.7
20260506191600 5 0.0 4.8 0.00 0.00 0.00 58 1008.7
20260506190523 5 0.0 0.0 0.00 0.00 0.00 56 1008.8
20260506185519 6 0.0 3.2 0.00 0.00 0.00 55 1008.8
20260506184539 6 0.0 3.2 0.00 0.00 0.00 54 1008.7
20260506183519 7 113 1.6 4.8 0.00 0.00 0.00 52 1008.6
20260506182524 7 135 1.6 6.4 0.00 0.00 0.00 51 1008.6
20260506181519 7 0.0 4.8 0.00 0.00 0.00 49 1008.5
20260506180519 7 135 1.6 6.4 0.00 0.00 0.00 47 1008.4
20260506175519 8 135 3.2 6.4 0.00 0.00 0.00 44 1008.4
20260506174519 8 135 1.6 6.4 0.00 0.00 0.00 44 1008.4
20260506173520 8 135 3.2 9.7 0.00 0.00 0.00 43 1008.4
20260506172519 9 158 3.2 9.7 0.00 0.00 0.00 41 1008.4
20260506171519 9 90 3.2 11.3 0.00 0.00 0.00 37 1008.3
20260506170559 10 158 3.2 11.3 0.00 0.00 0.00 33 1008.2
20260506165519 10 135 4.8 16.1 0.00 0.00 0.00 31 1008.2
20260506164519 10 113 4.8 14.5 0.00 0.00 0.00 31 1008.1
20260506163519 10 135 4.8 16.1 0.00 0.00 0.00 30 1008.0
20260506162521 10 113 4.8 14.5 0.00 0.00 0.00 28 1008.0
20260506161519 10 135 6.4 16.1 0.00 0.00 0.00 33 1008.0
20260506160520 11 135 4.8 12.9 0.00 0.00 0.00 36 1007.9
20260506155519 11 135 4.8 12.9 0.00 0.00 0.00 36 1007.9
20260506154519 11 135 4.8 12.9 0.00 0.00 0.00 34 1007.8
20260506153519 11 225 1.6 11.3 0.00 0.00 0.00 30 1007.9
20260506152519 11 90 3.2 9.7 0.00 0.00 0.00 32 1007.9
20260506151519 11 203 3.2 8.0 0.00 0.00 0.00 34 1007.9
20260506150519 11 113 6.4 17.7 0.00 0.00 0.00 32 1007.9
20260506145519 11 113 6.4 17.7 0.00 0.00 0.00 33 1008.0
20260506144519 11 158 3.2 12.9 0.00 0.00 0.00 32 1008.0
20260506143519 11 135 3.2 12.9 0.00 0.00 0.00 34 1008.0
20260506142519 11 113 6.4 16.1 0.00 0.00 0.00 33 1007.9
20260506141519 11 135 6.4 17.7 0.00 0.00 0.00 32 1008.0
20260506140519 11 113 8.0 14.5 0.00 0.00 0.00 31 1007.9
20260506135540 12 113 4.8 12.9 0.00 0.00 0.00 30 1007.9
20260506134519 12 158 3.2 12.9 0.00 0.00 0.00 31 1007.9
20260506133519 12 135 6.4 12.9 0.00 0.00 0.00 32 1007.9
20260506132519 12 135 6.4 16.1 0.00 0.00 0.00 32 1007.9
20260506131519 12 135 6.4 16.1 0.00 0.00 0.00 31 1008.0
20260506130559 12 135 4.8 14.5 0.00 0.00 0.00 31 1007.9
20260506125519 12 203 1.6 8.0 0.00 0.00 0.00 25 1007.9
20260506124524 12 45 3.2 9.7 0.00 0.00 0.00 24 1008.0
20260506123519 12 270 4.8 12.9 0.00 0.00 0.00 23 1008.0
20260506122519 12 45 1.6 6.4 0.00 0.00 0.00 24 1008.1
20260506121519 12 45 1.6 8.0 0.00 0.00 0.00 26 1008.2
20260506120519 12 270 4.8 11.3 0.00 0.00 0.00 23 1008.1
20260506115519 12 270 8.0 19.3 0.00 0.00 0.00 24 1008.1
20260506114519 12 270 4.8 12.9 0.00 0.00 0.00 25 1008.1
20260506113539 12 293 4.8 14.5 0.00 0.00 0.00 24 1008.2
20260506112519 12 270 3.2 9.7 0.00 0.00 0.00 26 1008.3
20260506111519 12 270 3.2 11.3 0.00 0.00 0.00 25 1008.3
20260506110519 12 270 6.4 14.5 0.00 0.00 0.00 26 1008.4
20260506105519 11 293 4.8 9.7 0.00 0.00 0.00 26 1008.5
20260506104518 11 270 6.4 11.3 0.00 0.00 0.00 25 1008.5